When you browse on this site, cookies collect data to enhance your experience and personalize the content and advertising you see.
Visit our Privacy Policy to learn more. By continuing to use the site, you agree to this use of cookies and data.
  • In Czech Republic
  • List of Countries
  • For 7 days
  • Water Temperature
  • Satellite Maps
  • Weather Map
  • Weather Widgets
  • user-avatar
    Login

    Hourly Weather Batina

    Today, 14 December, Friday

    Time Temperature Precipitation Wind Pressure Humidity
    00:00 +6°C° 0 mm 5 mps 664 mmHg 58%
    01:00 +5°C° 0.1 mm 5 mps 664 mmHg 63%
    02:00 +5°C° 0.1 mm 5 mps 663 mmHg 68%
    03:00 +5°C° 0.1 mm 4 mps 663 mmHg 73%
    04:00 +4°C° 0 mm 4 mps 663 mmHg 75%
    05:00 +3°C° 0 mm 4 mps 662 mmHg 77%
    06:00 +2°C° 0 mm 3 mps 662 mmHg 80%
    07:00 +3°C° 0.3 mm 4 mps 662 mmHg 77%
    08:00 +2°C° 0.3 mm 5 mps 662 mmHg 75%
    09:00 +3°C° 0.3 mm 5 mps 662 mmHg 72%
    10:00 +3°C° 0.5 mm 6 mps 662 mmHg 71%
    11:00 +4°C° 0.5 mm 6 mps 662 mmHg 70%
    12:00 +4°C° 0.5 mm 6 mps 663 mmHg 69%
    13:00 +5°C° 0.1 mm 6 mps 663 mmHg 65%
    14:00 +5°C° 0.1 mm 7 mps 663 mmHg 61%
    15:00 +6°C° 0.1 mm 7 mps 664 mmHg 57%
    16:00 +5°C° 0 mm 6 mps 664 mmHg 61%
    17:00 +6°C° 0 mm 4 mps 665 mmHg 65%
    18:00 +5°C° 0 mm 3 mps 665 mmHg 68%
    19:00 +5°C° 0.6 mm 5 mps 666 mmHg 72%
    20:00 +4°C° 0.6 mm 7 mps 667 mmHg 76%
    21:00 +4°C° 0.6 mm 8 mps 667 mmHg 79%
    22:00 +2°C° 0.2 mm 9 mps 668 mmHg 81%
    23:00 +2°C° 0.2 mm 9 mps 668 mmHg 82%

    Tomorrow, 15 December, Saturday

    Time Temperature Precipitation Wind Pressure Humidity
    00:00 +2°C° 0.2 mm 10 mps 669 mmHg 83%
    01:00 +2°C° 0.1 mm 9 mps 669 mmHg 83%
    02:00 +2°C° 0.1 mm 8 mps 670 mmHg 83%
    03:00 +1°C° 0.1 mm 8 mps 670 mmHg 83%
    04:00 +3°C° 0.1 mm 7 mps 670 mmHg 83%
    05:00 +3°C° 0.1 mm 7 mps 671 mmHg 84%
    06:00 +3°C° 0.1 mm 7 mps 671 mmHg 84%
    07:00 +4°C° 0 mm 6 mps 672 mmHg 82%
    08:00 +4°C° 0 mm 6 mps 672 mmHg 79%
    09:00 +6°C° 0 mm 5 mps 673 mmHg 77%
    10:00 +6°C° 0 mm 5 mps 673 mmHg 73%
    11:00 +7°C° 0 mm 5 mps 673 mmHg 70%
    12:00 +7°C° 0 mm 5 mps 673 mmHg 66%
    13:00 +8°C° 0 mm 5 mps 674 mmHg 64%
    14:00 +8°C° 0 mm 4 mps 674 mmHg 62%
    15:00 +8°C° 0 mm 4 mps 674 mmHg 60%
    16:00 +8°C° 0 mm 3 mps 674 mmHg 65%
    17:00 +7°C° 0 mm 3 mps 674 mmHg 70%
    18:00 +6°C° 0 mm 2 mps 674 mmHg 75%
    19:00 +6°C° 0 mm 2 mps 674 mmHg 76%
    20:00 +5°C° 0 mm 2 mps 674 mmHg 77%
    21:00 +5°C° 0 mm 2 mps 674 mmHg 78%
    22:00 +5°C° 0 mm 2 mps 674 mmHg 77%
    23:00 +5°C° 0 mm 2 mps 674 mmHg 76%

    Day after tomorrow, 16 December, Sunday

    Time Temperature Precipitation Wind Pressure Humidity
    00:00 +5°C° 0 mm 1 mps 674 mmHg 74%
    01:00 +5°C° 0 mm 1 mps 673 mmHg 73%
    02:00 +5°C° 0 mm 1 mps 673 mmHg 72%
    03:00 +5°C° 0 mm 1 mps 673 mmHg 70%
    04:00 +5°C° 0 mm 1 mps 673 mmHg 69%
    05:00 +5°C° 0 mm 1 mps 673 mmHg 68%
    06:00 +5°C° 0 mm 1 mps 673 mmHg 66%
    07:00 +7°C° 0 mm 1 mps 674 mmHg 58%
    08:00 +9°C° 0 mm 1 mps 675 mmHg 50%
    09:00 +11°C° 0 mm 1 mps 676 mmHg 42%
    10:00 +12°C° 0 mm 1 mps 676 mmHg 42%
    11:00 +14°C° 0 mm 2 mps 676 mmHg 42%
    12:00 +15°C° 0 mm 2 mps 676 mmHg 42%
    13:00 +15°C° 0 mm 2 mps 676 mmHg 43%
    14:00 +15°C° 0 mm 2 mps 675 mmHg 44%
    15:00 +15°C° 0 mm 2 mps 675 mmHg 45%
    16:00 +14°C° 0 mm 2 mps 675 mmHg 50%
    17:00 +12°C° 0 mm 2 mps 675 mmHg 54%
    18:00 +10°C° 0 mm 2 mps 675 mmHg 59%
    19:00 +9°C° 0 mm 2 mps 675 mmHg 60%
    20:00 +9°C° 0 mm 2 mps 675 mmHg 60%
    21:00 +9°C° 0 mm 2 mps 675 mmHg 60%
    22:00 +9°C° 0 mm 2 mps 675 mmHg 61%
    23:00 +9°C° 0 mm 2 mps 675 mmHg 62%

    17 December, Monday

    Time Temperature Precipitation Wind Pressure Humidity
    00:00 +8°C° 0 mm 3 mps 675 mmHg 62%
    01:00 +8°C° 0 mm 2 mps 674 mmHg 63%
    02:00 +8°C° 0 mm 2 mps 674 mmHg 63%
    03:00 +8°C° 0 mm 2 mps 674 mmHg 63%
    04:00 +7°C° 0 mm 2 mps 674 mmHg 64%
    05:00 +7°C° 0 mm 2 mps 674 mmHg 64%
    06:00 +8°C° 0 mm 1 mps 674 mmHg 65%
    07:00 +9°C° 0 mm 1 mps 675 mmHg 59%
    08:00 +11°C° 0 mm 1 mps 675 mmHg 53%
    09:00 +13°C° 0 mm 1 mps 676 mmHg 48%
    10:00 +13°C° 0 mm 2 mps 676 mmHg 45%
    11:00 +14°C° 0 mm 2 mps 676 mmHg 43%
    12:00 +14°C° 0 mm 3 mps 676 mmHg 41%
    13:00 +14°C° 0 mm 3 mps 676 mmHg 42%
    14:00 +14°C° 0 mm 3 mps 676 mmHg 43%
    15:00 +14°C° 0 mm 3 mps 676 mmHg 44%
    16:00 +12°C° 0 mm 3 mps 676 mmHg 52%
    17:00 +12°C° 0 mm 2 mps 676 mmHg 60%
    18:00 +9°C° 0 mm 2 mps 676 mmHg 68%
    19:00 +9°C° 0 mm 2 mps 676 mmHg 71%
    20:00 +9°C° 0 mm 2 mps 676 mmHg 75%
    21:00 +8°C° 0 mm 2 mps 676 mmHg 79%
    22:00 +8°C° 0 mm 2 mps 676 mmHg 82%
    23:00 +7°C° 0 mm 2 mps 676 mmHg 84%

    18 December, Tuesday

    Time Temperature Precipitation Wind Pressure Humidity
    00:00 +7°C° 0 mm 2 mps 676 mmHg 87%
    01:00 +7°C° 0 mm 2 mps 676 mmHg 88%
    02:00 +7°C° 0 mm 2 mps 676 mmHg 89%
    03:00 +6°C° 0 mm 2 mps 676 mmHg 90%
    04:00 +7°C° 0 mm 1 mps 676 mmHg 90%
    05:00 +7°C° 0 mm 1 mps 676 mmHg 90%
    06:00 +7°C° 0 mm 1 mps 676 mmHg 90%
    07:00 +7°C° 0 mm 1 mps 676 mmHg 83%
    08:00 +8°C° 0 mm 1 mps 677 mmHg 76%
    09:00 +9°C° 0 mm 1 mps 677 mmHg 69%
    10:00 +11°C° 0 mm 1 mps 677 mmHg 61%
    11:00 +12°C° 0 mm 1 mps 677 mmHg 53%
    12:00 +13°C° 0 mm 1 mps 677 mmHg 46%
    13:00 +13°C° 0 mm 2 mps 677 mmHg 45%
    14:00 +13°C° 0 mm 2 mps 677 mmHg 44%
    15:00 +13°C° 0 mm 2 mps 676 mmHg 44%
    16:00 +12°C° 0 mm 2 mps 676 mmHg 52%
    17:00 +10°C° 0 mm 2 mps 676 mmHg 59%
    18:00 +9°C° 0 mm 1 mps 676 mmHg 67%
    19:00 +8°C° 0 mm 2 mps 676 mmHg 70%
    20:00 +8°C° 0 mm 2 mps 676 mmHg 72%
    21:00 +7°C° 0 mm 2 mps 676 mmHg 75%
    22:00 +7°C° 0 mm 2 mps 676 mmHg 75%
    23:00 +7°C° 0 mm 2 mps 676 mmHg 74%

    19 December, Wednesday

    Time Temperature Precipitation Wind Pressure Humidity
    00:00 +6°C° 0 mm 2 mps 676 mmHg 74%
    01:00 +6°C° 0 mm 2 mps 675 mmHg 73%
    02:00 +6°C° 0 mm 2 mps 675 mmHg 73%
    03:00 +6°C° 0 mm 2 mps 675 mmHg 72%
    04:00 +6°C° 0 mm 2 mps 675 mmHg 73%
    05:00 +5°C° 0 mm 2 mps 675 mmHg 74%
    06:00 +5°C° 0 mm 2 mps 675 mmHg 75%
    07:00 +7°C° 0 mm 2 mps 675 mmHg 69%
    08:00 +8°C° 0 mm 2 mps 676 mmHg 63%
    09:00 +10°C° 0 mm 2 mps 677 mmHg 57%
    10:00 +11°C° 0 mm 3 mps 676 mmHg 53%
    11:00 +12°C° 0 mm 3 mps 676 mmHg 49%
    12:00 +13°C° 0 mm 3 mps 676 mmHg 45%
    13:00 +13°C° 0 mm 3 mps 676 mmHg 45%
    14:00 +13°C° 0 mm 3 mps 676 mmHg 46%
    15:00 +13°C° 0 mm 3 mps 675 mmHg 47%
    16:00 +11°C° 0 mm 3 mps 675 mmHg 53%
    17:00 +10°C° 0 mm 2 mps 675 mmHg 59%
    18:00 +9°C° 0 mm 2 mps 675 mmHg 65%
    19:00 +8°C° 0 mm 2 mps 675 mmHg 65%
    20:00 +8°C° 0 mm 2 mps 675 mmHg 66%
    21:00 +8°C° 0 mm 2 mps 675 mmHg 66%
    22:00 +7°C° 0 mm 2 mps 675 mmHg 66%
    23:00 +7°C° 0 mm 2 mps 675 mmHg 66%
    Show more